[[{"header":{"parameterUnit":"m.s-1","parameterCategory":1,"la1":30.2991,"la2":30.254,"lo1":-89.0895,"lo2":-89.0444,"dy":0.0017,"dx":0.0017,"nx":28,"ny":28,"refTime":"2025-12-11T03:00:00:Z","depth":0,"parameterNumber":2,"parameterNumberName":"U-component_of_WINDS"},"data":[0,0,0,0,0,0,0,0,0,0,0,0,0,0,0,0,0,0,0,0,0,0,0,0,0,0,0,0,0,0,0,0,0,0,0,0,0,0,0,0,0,0,0,0,0,0,0,0,0,0,0,0,0,0,0,0,0,0,0.3197,0.3197,0,0.3202,0.3202,0.3202,0.3172,0.3171,0.317,0.3169,0.3174,0.3175,0.3176,0,0,0,0,0,0,0,0,0,0,0,0,0,0.3159,0.3159,0.3197,0.3197,0.3197,0.3202,0.3202,0.3202,0.3172,0.3171,0.317,0.3169,0.3174,0.3175,0.3176,0,0,0,0,0,0,0,0,0,0,0,0,0,0.3171,0.316,0.3197,0.3182,0.3181,0.3202,0.3202,0.3202,0.3172,0.3171,0.317,0.3168,0.3173,0.3175,0.3176,0.3211,0,0,0.318,0.3181,0,0,0,0,0,0,0,0,0.317,0.3172,0.3184,0.3183,0.3182,0.3185,0.319,0.3205,0.3172,0.3176,0.3169,0.3168,0.3179,0.3179,0.3183,0.3211,0.3211,0.318,0.3181,0.3182,0.3182,0,0,0,0,0,0,0,0.3169,0.3172,0.3199,0.3185,0.3183,0.3175,0.3175,0.3193,0.3184,0.3175,0.3173,0.3174,0.3178,0.3182,0.3183,0.3211,0.318,0.3182,0.3182,0.3183,0.3266,0.3267,0,0,0,0,0,0,0.317,0.3171,0.3199,0.3199,0.3173,0.3177,0.3177,0.3185,0.3184,0.3183,0.3175,0.3173,0.318,0.3182,0.3183,0.3223,0.3182,0.3183,0.3184,0.3265,0.3266,0.3268,0,0,0,0,0,0,0.317,0.3173,0.3198,0.3184,0.3187,0.3179,0.3188,0.3186,0.319,0.3184,0.3182,0.3181,0.3179,0.3181,0.3204,0.3223,0.3184,0.3185,0.3263,0.3265,0.3267,0.3303,0,0,0,0,0,0,0.3169,0.3173,0.3187,0.3185,0.3188,0.322,0.3189,0.3187,0.3193,0.319,0.3189,0.3188,0.3178,0.3202,0.3205,0.3224,0.3186,0.3261,0.3264,0.3267,0.33,0.3306,0.3311,0,0,0,0,0,0.3168,0.3197,0.3188,0.3191,0.3205,0.3221,0.3222,0.3211,0.3195,0.3208,0.3204,0.3188,0.322,0.3205,0.3208,0.3227,0.326,0.3263,0.3266,0.3298,0.3305,0.3311,0,0,0,0,0,0,0.3201,0.3196,0.3186,0.3216,0.3219,0.3216,0.3232,0.3219,0.3227,0.3223,0.3209,0.3209,0.3234,0.3233,0.3215,0.326,0.3237,0.3241,0.326,0.3267,0.3272,0.3272,0.3187,0,0,0,0,0,0.3211,0.3225,0.322,0.3247,0.3249,0.324,0.3247,0.3238,0.324,0.3241,0.3239,0.3242,0.3252,0.3259,0.3269,0.33,0.3299,0.3315,0.332,0.3325,0.3328,0.3344,0.335,0.3278,0.3278,0.3278,0,0,0.3234,0.3233,0.3243,0.3253,0.3255,0.3269,0.3242,0.3258,0.3267,0.3244,0.3265,0.3263,0.3265,0.3292,0.3303,0.3292,0.3348,0.3329,0.3333,0.3333,0.3348,0.3354,0.3361,0.328,0.328,0.3279,0,0,0.3281,0.3283,0.3304,0.3306,0.3308,0.3302,0.3308,0.3306,0.3304,0.3325,0.3307,0.3318,0.3337,0.3339,0.3343,0.339,0.3376,0.3394,0.3422,0.3437,0.3443,0.3448,0.3464,0.347,0.3397,0.3397,0.3397,0,0.3309,0.3329,0.3317,0.3334,0.3339,0.3318,0.3339,0.3342,0.3347,0.335,0.3337,0.336,0.336,0.3386,0.3398,0.3402,0.3407,0.3393,0.3443,0.3448,0.3453,0.3468,0.3474,0.3399,0.3399,0.3399,0.3399,0,0.3362,0.3377,0.3394,0.3399,0.3406,0.3425,0.3415,0.3424,0.3414,0.3409,0.343,0.3429,0.3438,0.3443,0.3434,0.3468,0.3461,0.3446,0.3422,0.3462,0.3476,0.3482,0.3402,0.3402,0.3401,0.34,0,0,0.3431,0.3429,0.3435,0.3437,0.3438,0.3449,0.3467,0.3475,0.3482,0.3486,0.35,0.3516,0.3502,0.3506,0.3497,0.351,0.3547,0.3493,0.3493,0.3503,0.3583,0.3594,0.3601,0.3537,0.3539,0.3539,0.3583,0,0.3477,0.3507,0.3496,0.3527,0.354,0.352,0.3535,0.3537,0.3533,0.3543,0.3538,0.3549,0.353,0.3532,0.3545,0.354,0.3563,0.3537,0.355,0.355,0.3549,0.3609,0.362,0.3661,0.3588,0.3589,0.359,0,0.3534,0.3541,0.3573,0.3571,0.3575,0.359,0.3596,0.3606,0.3607,0.3603,0.3607,0.3595,0.3611,0.3588,0.3611,0.3593,0.3598,0.3596,0.3597,0.3598,0.3572,0.361,0.3674,0.368,0.3599,0.3598,0.3597,0,0.358,0.3597,0.3618,0.362,0.3618,0.3628,0.3628,0.3628,0.3634,0.3639,0.3642,0.365,0.3654,0.3659,0.3649,0.3633,0.3673,0.3649,0.3669,0.3669,0.3678,0.3677,0.3743,0.3682,0.3682,0.3682,0.3682,0,0.3632,0.3652,0.3638,0.3651,0.3673,0.366,0.3682,0.3679,0.3679,0.3691,0.3674,0.3685,0.3671,0.3681,0.3673,0.3692,0.3694,0.3691,0.3689,0.3692,0.3693,0.3695,0.3691,0.3683,0.3683,0.3683,0.3682,0,0.3686,0.3678,0.3699,0.3696,0.3695,0.3711,0.3708,0.372,0.3714,0.3729,0.3732,0.3723,0.3733,0.3724,0.3734,0.3729,0.3754,0.3748,0.3754,0.3751,0.3772,0.377,0.3841,0.3849,0.3784,0.3784,0.3785,0,0.3719,0.3734,0.3732,0.3739,0.374,0.3751,0.3756,0.3744,0.375,0.3752,0.3763,0.3772,0.3779,0.3797,0.3791,0.3798,0.3792,0.3816,0.3793,0.3796,0.3791,0.379,0.3791,0.3821,0.3822,0.3822,0.3823,0,0.3779,0.3774,0.3782,0.3789,0.3796,0.3801,0.3805,0.3811,0.3798,0.3806,0.3816,0.3822,0.3832,0.3841,0.3846,0.3845,0.3832,0.383,0.3835,0.3839,0.3841,0.3839,0.3766,0.3829,0.3828,0.3828,0.3827,0.3827,0.3823,0.3835,0.3835,0.3845,0.3846,0.385,0.386,0.3856,0.3865,0.3872,0.3864,0.3877,0.3877,0.3883,0.3884,0.3893,0.3883,0.389,0.3892,0.3894,0.3897,0.384,0.3895,0.3894,0.3894,0.3894,0.3894,0,0.3881,0.388,0.3889,0.3894,0.3902,0.3889,0.3892,0.3899,0.391,0.3912,0.3918,0.393,0.3939,0.3934,0.3941,0.395,0.3943,0.3952,0.3951,0.3951,0.3906,0.39,0.3957,0.3957,0.3957,0.3957,0.3957,0.3957,0.3911,0.3931,0.3926,0.3946,0.3944,0.3957,0.3959,0.3962,0.3963,0.3977,0.3984,0.3981,0.398,0.3987,0.3994,0.3992,0.3995,0.4006,0.4002,0.396,0.3954,0.3948,0.3943,0.4007,0.4007,0.4046,0.4046,0.4046]},{"header":{"parameterUnit":"m.s-1","parameterCategory":1,"la1":30.2991,"la2":30.254,"lo1":-89.0895,"lo2":-89.0444,"dy":0.0017,"dx":0.0017,"nx":28,"ny":28,"refTime":"2025-12-11T03:00:00:Z","depth":0,"parameterNumber":3,"parameterNumberName":"V-component_of_WINDS"},"data":[0,0,0,0,0,0,0,0,0,0,0,0,0,0,0,0,0,0,0,0,0,0,0,0,0,0,0,0,0,0,0,0,0,0,0,0,0,0,0,0,0,0,0,0,0,0,0,0,0,0,0,0,0,0,0,0,0,0,3.2042,3.2044,0,3.2257,3.226,3.2262,3.2283,3.2281,3.2279,3.2277,3.249,3.2498,3.2506,0,0,0,0,0,0,0,0,0,0,0,0,0,3.1642,3.165,3.2042,3.2044,3.2047,3.2257,3.226,3.2263,3.2283,3.2281,3.2278,3.2276,3.2488,3.2497,3.2506,0,0,0,0,0,0,0,0,0,0,0,0,0,3.1832,3.1652,3.2041,3.2083,3.2089,3.2256,3.226,3.2264,3.2284,3.2281,3.2277,3.2274,3.2485,3.2496,3.2508,3.2646,0,0,3.2543,3.2548,0,0,0,0,0,0,0,0,3.1822,3.1847,3.2074,3.208,3.2087,3.224,3.2197,3.2392,3.2285,3.221,3.2276,3.2273,3.2409,3.2427,3.2475,3.2656,3.2666,3.2544,3.2551,3.2556,3.256,0,0,0,0,0,0,0,3.1808,3.1838,3.2127,3.2077,3.2085,3.2089,3.2112,3.2234,3.2325,3.2216,3.2218,3.2244,3.2412,3.2463,3.248,3.2669,3.2544,3.2554,3.2562,3.2566,3.2974,3.2978,0,0,0,0,0,0,3.1788,3.1827,3.212,3.2133,3.1944,3.2099,3.2125,3.2194,3.2324,3.2341,3.2246,3.2244,3.2445,3.2466,3.2487,3.2659,3.2556,3.2567,3.2574,3.2971,3.2975,3.2979,0,0,0,0,0,0,3.178,3.1814,3.2111,3.1981,3.2019,3.2109,3.2187,3.22,3.2251,3.2347,3.2363,3.2282,3.2443,3.2471,3.2607,3.2666,3.2572,3.2583,3.2966,3.2972,3.2977,3.3002,0,0,0,0,0,0,3.1768,3.1811,3.1866,3.1982,3.2026,3.223,3.2191,3.2207,3.2272,3.2271,3.2385,3.2401,3.2443,3.259,3.2619,3.2681,3.2592,3.2961,3.2969,3.2976,3.2996,3.3007,3.3017,0,0,0,0,0,3.1754,3.1863,3.1869,3.1904,3.2097,3.2233,3.2258,3.2306,3.2277,3.2332,3.2394,3.2397,3.2655,3.2603,3.2636,3.2702,3.2958,3.2967,3.2975,3.2991,3.3005,3.3017,0,0,0,0,0,0,3.175,3.1879,3.1887,3.2037,3.2124,3.2236,3.2308,3.2319,3.2415,3.241,3.2463,3.2489,3.2623,3.2676,3.2616,3.2843,3.2803,3.2819,3.2804,3.2818,3.2829,3.2813,3.2602,0,0,0,0,0,3.1767,3.1869,3.1975,3.2097,3.2141,3.2217,3.2278,3.2307,3.2399,3.2435,3.2506,3.2593,3.2694,3.2759,3.2856,3.3003,3.3028,3.3065,3.3076,3.3084,3.3097,3.3178,3.3196,3.3008,3.3008,3.3008,0,0,3.1802,3.1886,3.1946,3.2099,3.217,3.2272,3.2247,3.2357,3.2433,3.2451,3.2585,3.264,3.274,3.2882,3.2948,3.2931,3.3154,3.3095,3.3101,3.311,3.3189,3.3207,3.3222,3.3014,3.3013,3.3012,0,0,3.192,3.1993,3.2103,3.2175,3.2284,3.2333,3.2359,3.247,3.2508,3.2644,3.266,3.2749,3.2922,3.2992,3.3051,3.3194,3.3201,3.3224,3.3281,3.3359,3.3374,3.3387,3.3439,3.3456,3.3237,3.3237,3.3237,0,3.195,3.2107,3.2158,3.2268,3.2334,3.2357,3.2468,3.2534,3.2668,3.2712,3.2691,3.2908,3.2977,3.3136,3.3171,3.3217,3.3248,3.3212,3.3368,3.3382,3.3395,3.3445,3.3464,3.3239,3.3239,3.3239,3.3239,0,3.2138,3.2247,3.2322,3.2453,3.2528,3.2637,3.2703,3.2772,3.2795,3.2846,3.2983,3.3066,3.3182,3.3221,3.3244,3.3384,3.3369,3.3358,3.3318,3.3415,3.3462,3.3481,3.3242,3.3242,3.3241,3.324,0,0,3.226,3.2418,3.2445,3.2505,3.2626,3.271,3.2819,3.2934,3.2992,3.3082,3.3175,3.332,3.3311,3.3377,3.3407,3.3476,3.3585,3.3456,3.3459,3.3477,3.3743,3.3752,3.3773,3.3589,3.3593,3.3596,3.3735,0,3.2391,3.259,3.2639,3.2808,3.2908,3.2931,3.3026,3.311,3.316,3.3251,3.3305,3.3408,3.3387,3.3427,3.3497,3.3557,3.3639,3.3547,3.3675,3.3678,3.365,3.3798,3.3808,3.3935,3.3754,3.3757,3.3759,0,3.2572,3.2669,3.2848,3.2956,3.3,3.3085,3.3194,3.3281,3.3375,3.3407,3.3481,3.3505,3.3618,3.3573,3.3729,3.3665,3.372,3.3757,3.3763,3.3777,3.3725,3.3816,3.3976,3.3995,3.3789,3.3786,3.3784,0,3.2643,3.2818,3.2949,3.2999,3.3128,3.3187,3.3243,3.3334,3.34,3.3494,3.3537,3.3642,3.37,3.378,3.3831,3.3793,3.3982,3.3941,3.4011,3.4009,3.405,3.4047,3.4222,3.4084,3.4084,3.4084,3.4083,0,3.2785,3.2894,3.2982,3.3062,3.3185,3.3238,3.3357,3.3413,3.3494,3.3584,3.3609,3.3692,3.3754,3.3846,3.3886,3.4008,3.4034,3.4062,3.4071,3.406,3.4057,3.4097,3.4089,3.4089,3.4088,3.4087,3.4086,0,3.2885,3.2949,3.3093,3.3203,3.3234,3.3319,3.3413,3.349,3.3541,3.3655,3.3684,3.3763,3.3872,3.3931,3.4066,3.4093,3.4231,3.4235,3.42,3.4204,3.4271,3.4264,3.4478,3.4509,3.435,3.4351,3.4353,0,3.2972,3.3057,3.3177,3.324,3.3298,3.3399,3.3467,3.3522,3.3591,3.3705,3.3769,3.3879,3.3971,3.4143,3.4212,3.4315,3.4322,3.439,3.4338,3.4324,3.4324,3.4319,3.4327,3.4399,3.4401,3.4402,3.4403,0,3.312,3.3147,3.3245,3.3354,3.3435,3.3523,3.3609,3.3659,3.3728,3.3804,3.3917,3.3989,3.4128,3.4237,3.4346,3.4401,3.4414,3.4419,3.4441,3.4431,3.4407,3.4421,3.4225,3.4414,3.4413,3.4412,3.4411,3.4411,3.3217,3.3293,3.339,3.3498,3.3569,3.365,3.3728,3.379,3.3885,3.4005,3.4031,3.415,3.4241,3.4389,3.4447,3.4539,3.4526,3.4557,3.4565,3.4572,3.4575,3.4392,3.4559,3.4559,3.4559,3.4559,3.4558,0,3.3366,3.3429,3.3528,3.365,3.3734,3.374,3.3836,3.3906,3.4011,3.4096,3.4186,3.4315,3.4421,3.4498,3.4606,3.4665,3.4673,3.4691,3.4687,3.47,3.4581,3.4552,3.4683,3.4683,3.4683,3.4683,3.4682,3.4682,3.3453,3.3583,3.3622,3.3786,3.3848,3.3967,3.4021,3.4095,3.4163,3.4307,3.4396,3.4446,3.4528,3.4641,3.4738,3.4758,3.4796,3.4814,3.4834,3.4721,3.4708,3.4696,3.4669,3.4822,3.4822,3.4945,3.4946,3.4947]}]]